Date,TemperatureHighF,TemperatureAvgF,TemperatureLowF,DewpointHighF,DewpointAvgF,DewpointLowF,HumidityHigh,HumidityAvg,HumidityLow,PressureMaxIn,PressureMinIn,WindSpeedMaxMPH,WindSpeedAvgMPH,GustSpeedMaxMPH,PrecipitationSumIn
2014-1-1,43.2,33.2,24.8,28.2,23.3,16.4,81,68,50,30.42,30.14,9,1,0,0.00
2014-1-2,33.9,30.5,25.7,29.8,27.5,24.0,96,89,77,30.14,29.66,7,1,0,0.00
2014-1-3,25.8,19.6,13.6,24.1,14.9,5.4,93,82,69,30.05,29.68,19,7,30,2.40
2014-1-4,28.1,24.9,20.5,14.4,13.0,11.8,69,60,54,30.31,30.27,1,0,0,0.01
2014-1-5,36.0,26.8,17.7,35.5,22.3,11.4,98,84,65,30.28,29.67,11,0,13,0.34
2014-1-6,40.6,29.1,4.4,40.3,20.5,-9.6,99,71,44,30.09,29.49,13,3,21,0.11
2014-1-7,12.2,6.4,0.4,-3.9,-7.4,-11.6,60,50,44,30.48,30.09,11,2,16,0.00
2014-1-8,25.0,17.7,8.6,12.5,3.3,-4.0,66,53,38,30.62,30.47,5,0,0,0.00
2014-1-9,35.2,28.1,22.5,23.0,17.2,11.8,72,63,50,30.65,30.50,8,1,0,0.00
2014-1-10,34.8,32.5,29.3,34.2,29.5,20.8,100,89,66,30.55,30.14,7,1,0,0.31
2014-1-11,49.7,40.8,33.7,48.8,39.8,33.2,100,97,69,30.14,29.40,11,1,19,0.68
2014-1-12,47.9,41.7,32.3,37.9,31.4,27.4,84,67,58,30.10,29.57,13,2,18,0.00
2014-1-13,52.8,42.5,30.2,40.3,33.7,26.6,91,72,57,30.10,29.84,7,1,15,0.01
2014-1-14,48.2,43.9,36.1,46.0,41.9,35.1,98,93,75,29.91,29.69,9,0,0,0.15
2014-1-15,44.1,35.0,30.1,41.7,32.1,29.6,100,90,62,29.98,29.89,10,2,14,0.01
2014-1-16,36.6,31.8,27.4,29.7,20.6,16.7,88,63,50,30.04,29.89,12,2,17,0.00
2014-1-17,44.5,35.1,25.1,29.8,26.2,21.5,87,71,51,29.95,29.83,9,1,13,0.00
2014-1-18,32.9,24.4,17.3,30.0,15.0,8.6,93,68,51,30.00,29.82,17,3,22,0.00
2014-1-19,42.7,29.9,18.6,28.0,18.8,10.2,73,64,49,29.96,29.73,10,1,13,0.00
2014-1-20,50.0,38.6,29.6,30.8,26.7,22.7,76,63,45,29.89,29.65,11,2,15,0.00
2014-1-21,35.7,24.3,11.0,29.0,20.3,2.9,94,85,69,29.93,29.77,13,3,18,0.00
2014-1-22,14.4,8.4,2.0,2.6,-2.0,-4.5,80,62,47,30.12,29.93,14,5,21,0.02
2014-1-23,24.0,11.6,2.0,10.8,1.9,-2.2,82,64,53,30.46,30.11,9,1,12,0.02
2014-1-24,19.9,12.8,5.1,1.1,-1.3,-3.8,66,53,38,30.54,30.05,9,2,15,0.01
2014-1-25,32.1,23.5,15.9,22.7,9.6,0.9,87,55,46,30.05,29.46,11,3,18,0.00
2014-1-26,30.2,23.3,13.1,13.1,8.4,2.8,70,53,43,29.91,29.68,9,1,17,0.00
2014-1-27,39.1,26.1,14.2,28.3,12.1,-0.1,72,55,48,30.21,29.65,19,3,24,0.01
2014-1-28,14.2,9.9,5.6,5.7,-3.9,-6.8,84,52,44,30.47,30.21,16,2,16,0.00
2014-1-29,21.5,13.3,6.0,6.5,-1.6,-7.1,86,52,35,30.37,30.23,12,1,17,0.00
2014-1-30,29.6,19.5,6.3,9.7,2.8,-2.4,70,48,34,30.48,30.17,9,2,14,0.00
2014-1-31,45.1,31.4,22.7,18.9,14.5,9.2,67,50,32,30.24,30.11,6,0,0,0.00
2014-2-1,47.9,38.8,29.7,27.2,20.0,15.1,68,48,31,30.29,29.99,12,2,20,0.00
2014-2-2,56.5,44.5,32.9,44.1,32.4,23.2,91,64,46,30.09,29.91,9,0,17,0.00
2014-2-3,40.2,34.3,30.5,37.9,32.3,27.4,97,93,85,30.34,30.03,10,3,15,0.98
2014-2-4,30.7,27.3,24.2,27.6,21.9,19.7,94,80,68,30.50,30.16,12,2,0,0.01
2014-2-5,38.8,31.8,26.5,35.6,29.0,20.8,97,90,69,30.18,29.70,16,2,21,0.17
2014-2-6,33.2,27.2,23.5,21.1,18.2,15.5,81,69,55,30.36,30.13,16,3,20,0.00
2014-2-7,36.4,29.7,23.4,22.3,19.4,15.3,82,66,54,30.35,30.27,6,1,0,0.00
2014-2-8,29.1,26.1,21.8,21.1,17.0,12.7,87,68,53,30.35,30.19,9,1,0,0.00
2014-2-9,30.1,26.9,21.8,27.7,22.2,17.1,96,83,69,30.21,29.99,12,1,12,0.00
2014-2-10,29.1,23.8,18.3,25.4,13.4,8.8,86,64,52,30.35,30.07,10,3,15,0.01
2014-2-11,25.7,19.5,13.0,12.2,9.5,7.3,79,65,50,30.50,30.34,8,1,0,0.00
2014-2-12,23.0,18.5,13.0,18.6,9.5,3.8,92,68,58,30.55,30.20,8,2,14,0.00
2014-2-13,35.1,29.1,20.4,32.8,27.5,18.2,96,94,82,30.19,29.36,17,6,29,0.15
2014-2-14,45.8,38.9,30.9,29.4,24.8,18.7,82,58,45,29.73,29.39,13,2,23,0.10
2014-2-15,39.2,32.1,25.3,31.6,25.1,10.6,93,76,53,29.94,29.62,19,6,24,0.03
2014-2-16,31.1,26.0,21.3,22.4,15.5,9.8,90,65,51,30.22,29.94,12,2,21,0.00
2014-2-17,27.8,26.5,24.6,20.7,12.9,6.8,84,57,41,30.33,30.20,12,3,20,0.00
2014-2-18,52.7,37.2,23.9,31.0,24.7,18.8,93,65,36,30.22,30.01,9,2,16,0.04
2014-2-19,55.3,43.6,34.3,42.3,31.5,23.9,92,63,41,30.14,29.69,9,1,15,0.15
2014-2-20,51.0,42.7,30.0,34.0,28.5,23.4,85,59,34,30.24,29.92,11,2,15,0.00
2014-2-21,52.4,45.6,40.0,51.0,36.5,25.1,97,72,43,29.97,29.63,12,1,16,0.39
2014-2-22,58.7,48.3,39.5,28.7,23.8,20.6,51,39,24,30.09,29.97,10,1,14,0.00
2014-2-23,54.3,43.9,35.0,37.8,30.1,24.8,88,60,41,30.01,29.88,11,2,16,0.02
2014-2-24,40.1,34.4,26.8,33.3,16.9,10.6,85,50,31,30.13,29.93,16,2,23,0.00
2014-2-25,34.8,28.8,24.7,26.4,16.7,10.2,88,61,48,30.13,30.00,10,1,15,0.02
2014-2-26,31.5,26.7,19.8,22.6,13.5,6.0,84,58,39,30.01,29.87,13,2,20,0.00
2014-2-27,33.4,24.3,15.0,14.0,9.0,6.1,77,54,34,30.00,29.71,14,2,22,0.00
2014-2-28,25.1,19.0,5.1,4.0,-1.0,-4.6,73,41,31,30.45,30.36,7,1,13,0.00
2014-3-1,39.7,28.9,14.8,22.4,13.2,1.4,62,52,43,30.40,30.17,9,1,13,0.00
2014-3-2,45.2,37.4,32.2,37.4,29.3,19.7,95,74,50,30.16,30.00,10,1,0,0.29
2014-3-3,32.1,17.5,7.4,30.6,12.0,1.2,94,79,58,30.38,30.00,12,4,17,0.01
2014-3-4,28.7,18.2,5.4,8.2,3.6,-0.9,79,55,31,30.45,30.27,5,0,0,0.08
2014-3-5,41.3,28.5,14.7,17.2,11.7,4.0,72,50,32,30.44,30.21,17,2,19,0.05
2014-3-6,32.0,25.7,19.3,19.1,14.4,9.8,67,62,54,30.60,30.38,12,3,14,0.00
2014-3-7,41.5,32.4,26.3,30.8,24.5,16.2,81,73,63,30.39,29.96,9,2,0,0.00
2014-3-8,60.5,44.1,27.5,40.4,32.0,24.2,90,65,41,29.97,29.87,6,0,0,0.00
2014-3-9,47.1,40.4,35.0,36.3,25.0,17.1,76,56,34,30.13,29.92,12,3,15,0.00
2014-3-10,65.0,48.8,34.2,36.9,29.1,20.2,60,47,33,30.00,29.64,12,2,15,0.00
2014-3-11,70.0,59.7,51.0,44.3,39.7,32.4,65,48,38,29.70,29.60,8,1,0,0.00
2014-3-12,66.2,50.2,28.6,57.2,40.0,18.0,89,68,56,29.63,29.01,20,3,29,0.12
2014-3-13,30.2,24.5,15.8,18.2,6.9,0.9,66,47,36,30.18,29.52,19,5,32,0.00
2014-3-14,56.3,40.6,23.0,26.0,16.9,7.4,58,39,28,30.23,29.85,15,3,21,0.00
2014-3-15,62.3,53.0,44.2,37.0,27.0,22.8,56,37,23,30.05,29.79,10,2,21,0.00
2014-3-16,44.0,36.0,26.1,28.9,23.8,15.5,91,63,36,30.18,30.05,10,3,16,0.00
2014-3-17,29.8,25.8,21.5,23.5,21.2,18.5,93,83,72,30.10,30.02,10,2,0,0.12
2014-3-18,41.8,34.9,28.3,26.0,22.5,17.6,80,61,48,30.24,30.09,8,1,0,0.05
2014-3-19,40.1,37.2,33.7,39.6,33.9,25.6,100,88,60,30.23,29.86,8,1,0,0.04
2014-3-20,54.5,46.5,38.2,40.2,31.7,25.3,99,60,35,30.00,29.81,12,2,15,0.01
2014-3-21,50.2,43.0,35.8,39.0,32.8,26.2,84,67,55,30.08,30.00,7,1,12,0.01
2014-3-22,67.9,51.1,37.9,42.7,34.8,29.7,90,59,26,30.02,29.83,13,2,19,0.00
2014-3-23,45.1,38.7,28.8,31.2,23.7,9.8,70,55,37,30.20,30.01,14,3,15,0.00
2014-3-24,37.6,28.3,18.4,12.6,9.2,6.9,62,45,29,30.33,30.14,11,2,16,0.00
2014-3-25,32.7,29.3,25.9,30.4,22.6,8.1,94,78,40,30.16,29.88,6,1,0,0.20
2014-3-26,32.8,27.8,23.2,25.8,14.8,8.6,96,60,38,30.33,29.92,22,4,25,0.02
2014-3-27,48.5,34.7,20.2,24.1,17.2,9.3,70,50,36,30.45,30.17,13,3,19,0.02
2014-3-28,63.5,52.1,43.3,53.0,42.4,23.7,95,71,44,30.17,29.96,18,4,18,0.21
2014-3-29,56.4,50.4,47.2,50.6,47.2,44.2,98,89,74,30.09,29.58,20,5,23,0.97
2014-3-30,47.0,40.6,33.3,46.4,37.7,32.2,98,90,71,29.85,29.54,24,7,29,0.88
2014-3-31,63.2,49.5,38.1,34.3,31.6,29.4,72,53,29,30.10,29.85,20,6,24,0.00
2014-4-1,64.4,53.0,39.9,39.9,34.1,28.3,66,49,38,30.17,29.94,11,2,16,0.00
2014-4-2,65.1,53.2,42.7,49.6,43.9,38.9,88,71,56,30.11,29.98,7,0,0,0.00
2014-4-3,60.5,54.6,50.3,48.5,44.4,39.3,89,69,50,30.11,29.92,11,2,15,0.02
2014-4-4,55.0,49.9,46.0,48.5,44.2,36.5,95,81,67,29.94,29.68,12,3,15,0.04
2014-4-5,53.5,47.7,41.5,48.2,34.7,27.5,100,63,44,30.16,29.73,14,3,20,0.00
2014-4-6,56.4,45.6,30.8,30.2,25.9,21.3,77,49,26,30.26,30.13,9,1,12,0.00
2014-4-7,46.1,42.0,38.1,45.4,36.0,24.9,98,82,44,30.17,29.62,13,2,13,0.37
2014-4-8,60.2,51.5,44.1,52.3,43.3,37.1,100,76,49,29.69,29.47,13,2,19,0.01
2014-4-9,63.4,51.6,38.9,40.7,34.3,27.2,85,55,28,30.05,29.69,10,2,20,0.00
2014-4-10,69.2,56.3,37.0,39.2,33.5,27.3,70,44,29,30.20,29.98,15,3,18,0.00
2014-4-11,78.2,62.3,53.5,54.1,44.8,36.8,94,56,29,30.03,29.90,15,2,21,0.04
2014-4-12,73.8,62.0,47.6,51.8,43.0,31.3,97,57,23,30.26,30.03,10,1,14,0.01
2014-4-13,82.3,68.7,54.7,58.5,54.1,47.9,87,62,39,30.11,29.92,14,3,21,0.00
2014-4-14,75.0,69.6,62.9,58.9,55.8,53.6,74,62,50,29.94,29.74,20,5,24,0.00
2014-4-15,69.2,52.5,33.5,63.0,48.4,20.3,98,86,58,30.06,29.50,18,5,23,1.06
2014-4-16,46.5,36.7,28.6,23.9,19.2,15.7,63,49,36,30.54,30.04,17,4,27,0.00
2014-4-17,53.8,43.5,34.4,34.1,27.8,19.8,76,54,41,30.66,30.52,12,2,17,0.00
2014-4-18,53.9,43.3,32.5,38.6,34.2,29.3,89,71,52,30.59,30.26,7,1,12,0.00
2014-4-19,65.6,53.8,40.2,44.1,35.9,27.1,85,55,32,30.31,30.23,11,2,15,0.00
2014-4-20,61.6,54.4,46.4,40.7,33.3,24.7,68,45,32,30.42,30.28,15,4,18,0.00
2014-4-21,68.6,54.2,36.1,37.4,32.4,22.4,88,49,18,30.28,29.86,8,0,0,0.00
2014-4-22,71.0,58.7,47.1,57.3,47.7,35.7,94,68,45,29.86,29.55,13,0,17,0.08
2014-4-23,53.5,49.1,44.0,45.3,36.8,32.2,75,63,54,30.00,29.68,22,4,24,0.00
2014-4-24,61.6,49.8,38.2,32.3,26.9,22.6,65,43,24,30.14,30.00,12,1,13,0.00
2014-4-25,67.2,52.7,43.7,50.0,39.4,24.8,96,64,39,30.02,29.72,13,1,18,0.55
2014-4-26,75.1,60.3,46.7,51.8,45.0,34.0,98,60,32,29.91,29.72,14,2,19,0.00
2014-4-27,63.4,52.9,37.5,41.8,36.4,31.7,81,55,37,30.10,29.91,8,1,14,0.00
2014-4-28,59.7,51.7,47.1,48.2,40.6,34.5,97,68,48,30.12,29.96,11,2,15,0.18
2014-4-29,48.1,46.6,44.7,47.3,45.7,43.6,98,97,92,30.21,30.04,12,3,18,0.94
2014-4-30,56.7,50.2,44.9,56.4,49.6,44.4,99,98,95,30.18,29.83,18,4,21,1.60
2014-5-1,75.2,61.6,51.8,61.1,52.9,42.0,100,76,48,29.85,29.70,13,1,14,0.04
2014-5-2,67.2,58.4,49.4,46.3,40.9,38.2,68,53,38,29.88,29.78,6,0,12,0.00
2014-5-3,69.5,58.3,48.2,48.4,44.1,38.3,87,61,39,29.88,29.72,6,0,14,0.00
2014-5-4,70.5,59.5,51.9,48.1,42.7,34.6,77,55,38,29.94,29.73,12,1,15,0.00
2014-5-5,62.6,52.9,42.2,46.1,38.3,31.6,92,59,39,30.06,29.89,9,1,14,0.02
2014-5-6,71.6,59.4,48.1,50.4,45.1,39.6,96,64,33,30.03,29.89,8,0,0,0.00
2014-5-7,59.8,55.2,47.7,53.3,44.4,34.0,94,69,45,30.27,30.03,10,2,14,0.46
2014-5-8,84.8,67.8,51.5,65.2,57.8,49.7,96,73,46,30.14,29.97,6,0,0,0.00
2014-5-9,76.5,66.9,60.2,66.0,62.1,59.1,97,85,68,30.10,29.91,11,1,12,0.00
2014-5-10,80.2,67.4,59.7,65.5,62.5,59.1,98,85,53,29.98,29.89,5,0,0,0.91
2014-5-11,79.3,67.2,54.6,60.6,54.7,49.0,100,69,36,30.13,29.93,6,0,0,0.01
2014-5-12,85.8,71.1,57.7,68.7,61.5,53.2,95,73,49,30.12,30.02,8,0,0,0.05
2014-5-13,87.4,73.6,62.5,70.0,65.7,61.9,99,79,50,30.14,30.03,8,1,0,0.25
2014-5-14,66.2,61.3,58.1,62.9,59.8,57.0,99,95,88,30.21,30.11,8,1,0,0.02
2014-5-15,78.3,67.8,62.6,70.0,65.6,62.3,100,93,74,30.14,29.86,14,2,19,1.40
2014-5-16,67.6,60.1,51.6,67.0,53.5,44.5,100,80,55,29.95,29.73,12,2,22,2.32
2014-5-17,65.2,55.6,46.7,47.5,42.5,36.5,87,63,37,30.18,29.95,6,0,0,0.00
2014-5-18,63.9,53.9,44.7,45.7,40.7,36.6,85,63,40,30.26,30.18,10,1,0,0.00
2014-5-19,71.5,57.8,43.6,46.5,40.8,36.4,82,56,31,30.31,30.15,6,0,0,0.00
2014-5-20,75.5,62.5,47.3,53.9,45.8,40.3,82,57,31,30.21,29.99,2,0,0,0.00
2014-5-21,72.1,65.2,58.6,62.7,57.2,49.5,96,76,60,29.99,29.88,5,0,0,0.02
2014-5-22,84.8,73.0,61.7,68.4,61.9,49.9,99,70,50,29.92,29.76,10,1,20,0.45
2014-5-23,73.1,63.9,53.0,57.4,50.7,44.9,86,63,45,30.03,29.89,10,2,19,0.00
2014-5-24,74.1,62.6,50.8,58.5,51.1,46.0,86,67,46,30.12,30.02,8,1,0,0.00
2014-5-25,79.4,67.2,51.8,60.7,52.4,48.6,95,62,35,30.17,30.08,4,0,0,0.01
2014-5-26,83.9,70.8,54.4,62.4,56.3,50.9,89,63,38,30.13,29.96,3,0,0,0.00
2014-5-27,87.5,72.8,64.4,74.6,65.1,58.0,99,78,56,29.98,29.83,7,0,13,0.78
2014-5-28,81.6,71.9,59.4,71.7,66.8,58.5,99,85,64,30.05,29.84,12,1,17,0.40
2014-5-29,59.1,55.3,54.1,58.2,54.6,53.5,99,98,96,30.18,30.05,7,1,13,0.47
2014-5-30,72.4,61.4,54.1,60.5,56.6,53.8,99,86,61,30.16,30.06,5,0,0,0.01
2014-5-31,76.1,66.6,54.3,56.8,50.7,43.8,93,60,36,30.23,30.11,8,1,12,0.00
2014-6-1,74.8,64.1,53.6,58.2,54.1,49.7,96,72,45,30.34,30.20,11,1,13,0.00
2014-6-2,80.2,68.7,56.0,63.9,57.6,48.9,82,68,55,30.26,30.03,7,1,0,0.00
2014-6-3,82.8,73.8,61.5,70.6,65.8,59.2,94,77,62,30.03,29.82,4,0,0,0.00
2014-6-4,82.9,74.0,65.1,66.2,63.1,58.0,96,71,46,29.87,29.67,6,0,0,0.10
2014-6-5,77.1,67.0,59.6,64.6,58.6,52.4,98,77,47,29.87,29.58,10,1,12,0.52
2014-6-6,75.7,66.3,55.1,56.4,52.3,46.4,82,62,47,29.99,29.85,7,0,12,0.00
2014-6-7,81.2,68.8,53.5,60.7,56.3,51.6,96,67,43,30.05,29.94,4,0,0,0.00
2014-6-8,80.4,70.3,58.7,68.5,63.2,56.2,97,79,59,29.97,29.79,14,1,15,0.12
2014-6-9,81.4,73.5,66.9,70.8,68.9,66.6,100,86,65,29.88,29.82,4,0,0,0.27
2014-6-10,85.5,75.0,67.8,73.2,69.8,67.3,100,85,59,29.93,29.84,5,0,0,0.74
2014-6-11,83.0,71.8,65.4,73.4,68.6,64.4,99,90,69,29.99,29.87,12,1,14,1.90
2014-6-12,74.0,69.5,66.3,71.6,69.0,66.0,100,98,90,29.95,29.81,8,1,13,1.13
2014-6-13,83.2,73.5,66.6,73.6,68.6,61.5,100,86,60,29.86,29.71,6,0,18,0.28
2014-6-14,71.6,66.2,59.4,64.0,56.4,52.4,92,72,54,30.10,29.86,11,1,16,0.01
2014-6-15,80.7,67.5,51.2,63.1,56.7,49.6,97,70,49,30.19,30.07,4,0,0,0.00
2014-6-16,89.2,74.9,60.1,70.7,65.1,58.4,98,74,48,30.13,30.02,7,0,0,0.00
2014-6-17,90.1,79.6,66.4,75.2,71.0,65.5,98,77,56,30.10,29.93,6,0,13,0.00
2014-6-18,91.1,82.4,74.4,76.6,72.0,65.7,94,72,57,30.01,29.92,6,0,12,0.11
2014-6-19,80.9,73.0,66.7,74.0,69.3,65.8,97,89,70,30.03,29.91,8,0,12,0.25
2014-6-20,80.0,70.9,60.3,65.6,56.7,45.1,98,63,43,30.07,29.92,5,0,0,0.00
2014-6-21,70.6,66.0,61.6,63.1,59.8,56.2,90,81,61,29.93,29.88,5,0,0,0.07
2014-6-22,79.6,69.7,60.3,66.6,62.2,58.4,96,78,59,29.99,29.89,6,0,0,0.00
2014-6-23,80.4,72.0,61.3,66.2,62.5,59.6,95,73,55,30.10,29.99,11,1,15,0.00
2014-6-24,83.7,74.7,65.1,72.0,66.6,60.1,87,76,66,30.11,29.96,11,2,19,0.00
2014-6-25,86.6,76.7,70.2,75.4,70.9,66.4,97,83,62,29.98,29.77,10,1,13,0.02
2014-6-26,85.3,75.9,68.2,70.1,67.4,64.7,98,77,54,29.98,29.83,10,1,14,0.00
2014-6-27,85.1,74.8,64.5,70.7,66.9,63.0,96,78,56,30.17,29.98,7,1,13,0.00
2014-6-28,82.4,74.0,64.1,66.4,62.1,57.1,92,68,48,30.26,30.17,8,1,12,0.00
2014-6-29,83.5,74.5,63.9,63.8,60.6,56.9,88,64,42,30.23,30.08,13,1,13,0.00
2014-6-30,86.7,77.1,67.7,73.4,67.0,60.4,81,71,61,30.09,29.90,6,0,0,0.00
2014-7-1,90.1,80.3,70.6,75.8,72.8,68.1,97,79,60,29.94,29.79,11,1,12,0.32
2014-7-2,92.6,78.9,72.4,79.6,74.3,70.1,100,87,55,29.91,29.81,5,0,15,0.14
2014-7-3,87.8,75.5,69.2,75.3,71.7,68.8,100,89,59,29.98,29.86,6,0,17,0.33
2014-7-4,75.1,69.7,59.2,70.8,59.4,50.8,99,72,47,30.17,29.97,19,3,19,0.07
2014-7-5,79.9,68.0,53.2,57.3,53.0,48.5,89,61,35,30.27,30.14,8,0,0,0.00
2014-7-6,84.8,72.4,57.0,66.1,60.5,55.0,95,68,45,30.15,29.92,11,0,0,0.00
2014-7-7,87.9,79.3,69.3,71.6,67.8,63.7,83,69,55,29.93,29.76,8,0,13,0.00
2014-7-8,89.6,77.4,67.1,74.5,68.7,65.9,96,76,54,29.84,29.67,9,0,15,0.22
2014-7-9,85.4,73.7,66.1,73.9,68.9,65.2,99,86,60,29.95,29.80,9,0,15,0.24
2014-7-10,85.4,73.7,65.5,72.1,66.9,63.5,99,81,50,30.11,29.95,10,0,13,0.00
2014-7-11,84.7,74.5,63.9,70.1,65.8,62.0,95,76,52,30.19,30.11,5,0,0,0.00
2014-7-12,86.5,76.3,67.5,74.9,70.5,65.7,97,83,60,30.19,30.07,9,1,15,0.09
2014-7-13,87.7,77.6,69.8,77.7,71.7,68.0,98,83,64,30.08,29.86,16,0,16,0.71
2014-7-14,86.6,75.1,68.9,77.8,72.3,68.5,100,92,71,29.94,29.78,4,0,12,0.84
2014-7-15,82.9,74.1,69.5,75.6,71.7,68.9,100,93,71,29.81,29.70,3,0,0,0.31
2014-7-16,78.1,69.1,60.5,68.7,60.0,54.5,98,75,48,29.93,29.77,6,0,0,0.14
2014-7-17,78.6,68.2,58.4,62.4,57.3,54.0,88,70,45,30.13,29.93,5,0,0,0.00
2014-7-18,79.4,69.2,55.7,62.4,58.1,53.2,94,70,46,30.23,30.13,7,0,0,0.00
2014-7-19,78.7,70.2,63.9,65.5,62.0,58.3,94,76,58,30.20,30.11,7,0,0,0.04
2014-7-20,80.3,72.0,64.0,68.5,64.3,60.1,92,78,52,30.13,30.06,5,0,0,0.00
2014-7-21,80.4,73.7,69.4,71.8,69.1,67.5,95,86,73,30.17,30.09,7,0,0,0.02
2014-7-22,84.3,76.2,69.5,73.6,70.9,67.7,97,84,66,30.17,30.04,9,1,13,0.00
2014-7-23,90.9,77.5,69.0,77.4,71.9,68.1,99,84,59,30.04,29.77,5,0,0,0.18
2014-7-24,76.8,71.1,63.1,70.1,64.6,58.0,99,81,54,29.95,29.85,6,0,0,0.05
2014-7-25,79.8,68.9,55.4,61.0,57.2,51.7,91,68,47,30.08,29.95,4,0,0,0.00
2014-7-26,84.1,73.6,64.5,68.7,63.5,58.2,94,73,46,30.00,29.85,8,0,0,0.01
2014-7-27,85.7,75.5,66.6,74.6,70.1,65.1,96,84,67,29.87,29.60,7,0,16,0.46
2014-7-28,79.7,70.8,64.9,67.3,63.8,59.9,98,80,56,29.83,29.54,7,0,15,0.01
2014-7-29,72.2,63.7,56.4,60.0,54.4,50.9,86,72,55,30.01,29.82,5,0,0,0.00
2014-7-30,76.9,64.9,51.4,60.4,55.3,49.7,97,73,47,30.08,30.00,4,0,0,0.00
2014-7-31,83.9,70.7,58.5,65.8,62.1,57.4,98,76,49,30.10,30.03,6,0,0,0.05
2014-8-1,75.2,70.0,64.2,69.4,66.2,62.7,98,88,77,30.17,30.10,1,0,0,0.00
2014-8-2,77.7,70.7,62.3,68.1,64.8,60.7,97,82,67,30.15,30.04,6,0,0,0.00
2014-8-3,82.1,71.9,63.7,71.2,67.6,62.8,98,87,64,30.08,29.97,7,0,12,0.68
2014-8-4,81.7,70.4,59.5,68.8,64.9,59.2,100,84,60,30.11,30.04,7,0,0,0.01
2014-8-5,86.2,73.8,61.6,69.3,64.7,61.0,99,76,44,30.07,29.92,10,0,12,0.14
2014-8-6,79.1,69.5,61.6,69.4,65.6,61.1,99,88,65,29.96,29.89,3,0,0,0.05
2014-8-7,79.4,71.4,64.2,66.6,62.5,57.3,98,76,49,30.05,29.93,6,0,0,0.00
2014-8-8,80.5,69.8,57.9,63.4,59.4,55.7,93,71,49,30.14,30.05,4,0,0,0.00
2014-8-9,81.6,72.8,64.4,69.5,63.9,59.1,85,74,60,30.11,30.04,6,0,0,0.00
2014-8-10,84.0,73.8,61.8,68.6,64.9,60.7,99,75,53,30.13,30.05,5,0,0,0.00
2014-8-11,79.0,70.5,62.1,67.0,63.6,60.1,97,80,54,30.10,29.99,8,0,13,0.24
2014-8-12,74.9,69.6,65.3,72.7,68.4,64.1,99,96,91,29.99,29.75,9,1,14,0.92
2014-8-13,78.9,71.6,65.1,70.5,64.2,56.4,99,79,60,29.90,29.74,7,0,12,0.00
2014-8-14,80.4,67.6,54.6,64.4,56.1,50.9,94,68,44,29.94,29.84,7,0,0,0.00
2014-8-15,77.2,65.2,52.8,57.1,52.5,47.8,84,65,40,30.02,29.93,4,0,0,0.00
2014-8-16,79.6,65.8,50.3,60.7,55.2,48.6,96,71,43,30.03,29.92,5,0,0,0.00
2014-8-17,85.3,74.2,62.0,70.9,64.2,58.4,90,72,55,29.93,29.86,5,0,0,0.00
2014-8-18,80.8,71.4,61.9,68.8,63.9,59.7,94,78,64,29.93,29.79,4,0,0,0.00
2014-8-19,81.2,73.8,66.8,72.6,67.4,63.5,90,81,70,29.90,29.81,5,0,0,0.00
2014-8-20,82.2,72.7,66.7,72.4,68.6,64.9,95,87,67,30.00,29.89,11,1,15,0.07
2014-8-21,86.1,73.4,63.8,75.1,68.6,62.9,99,86,62,30.04,29.96,5,0,0,0.00
2014-8-22,80.3,73.3,66.8,73.1,68.8,64.8,95,86,75,30.00,29.93,7,0,0,0.00
2014-8-23,71.5,67.5,65.1,69.0,66.2,64.4,98,96,92,30.09,29.96,7,1,0,0.99
2014-8-24,76.5,68.1,62.2,66.1,63.0,61.0,98,85,60,30.16,30.09,6,1,0,0.09
2014-8-25,79.3,68.8,57.6,64.7,60.5,56.8,98,77,51,30.19,30.11,5,0,0,0.00
2014-8-26,82.8,69.9,56.1,67.2,62.0,55.3,98,78,53,30.18,30.07,4,0,0,0.00
2014-8-27,86.8,74.0,59.6,72.8,67.0,58.7,98,80,60,30.09,29.89,2,0,0,0.00
2014-8-28,78.9,71.8,60.7,70.6,62.0,54.2,94,73,48,30.08,29.89,11,1,12,0.00
2014-8-29,76.4,66.9,53.6,60.7,55.2,49.7,88,67,52,30.21,30.08,7,0,0,0.00
2014-8-30,79.6,71.5,62.0,72.0,66.3,55.8,92,84,75,30.21,30.08,9,1,12,0.00
2014-8-31,88.5,76.1,71.5,77.3,73.0,70.6,98,91,64,30.10,29.97,6,0,0,0.49
2014-9-1,87.7,77.1,70.4,77.4,73.3,70.1,100,89,65,30.02,29.91,2,0,0,0.12
2014-9-2,89.0,75.9,69.3,76.0,71.5,67.3,99,88,61,29.96,29.80,6,0,18,0.02
2014-9-3,83.1,74.3,68.0,71.3,67.9,65.1,99,82,57,30.12,29.89,5,0,0,0.08
2014-9-4,85.0,76.0,66.2,73.8,69.0,63.8,93,80,65,30.16,30.05,9,1,14,0.00
2014-9-5,87.4,78.1,69.3,76.4,73.0,68.4,99,85,67,30.14,29.98,2,0,0,0.01
2014-9-6,89.8,76.5,69.0,77.4,72.2,67.8,99,88,62,30.00,29.83,9,0,12,0.00
2014-9-7,75.3,67.4,60.0,67.7,58.3,53.6,96,74,49,30.17,29.97,7,0,0,0.00
2014-9-8,73.1,65.2,56.7,64.9,58.5,53.5,91,79,68,30.25,30.16,7,1,12,0.01
2014-9-9,71.7,67.1,63.1,66.0,62.7,58.7,90,86,80,30.21,30.08,8,1,12,0.00
2014-9-10,76.5,69.7,65.2,68.7,65.1,63.1,93,86,74,30.11,29.95,13,2,14,0.00
2014-9-11,84.6,74.0,66.0,74.3,68.6,59.6,96,84,65,30.00,29.84,7,1,14,0.00
2014-9-12,71.3,63.9,54.7,60.1,56.7,53.1,97,78,63,30.15,29.99,8,1,12,0.00
2014-9-13,65.2,59.4,53.3,62.0,55.9,52.2,97,88,76,30.24,30.09,10,1,12,0.00
2014-9-14,66.1,56.1,46.0,53.3,49.5,44.6,97,80,57,30.34,30.20,6,0,0,0.00
2014-9-15,70.7,59.9,46.7,57.6,52.7,45.9,98,79,54,30.25,30.02,5,0,0,0.00
2014-9-16,72.4,63.2,54.2,59.5,55.8,50.1,98,78,54,30.04,29.98,11,0,15,0.00
2014-9-17,72.7,60.6,49.1,57.5,52.0,47.5,97,76,48,30.07,29.94,3,0,0,0.00
2014-9-18,74.7,62.9,53.8,60.5,53.8,49.9,95,74,44,30.10,29.94,5,0,0,0.00
2014-9-19,71.2,62.1,52.1,59.5,54.6,48.7,88,77,61,30.27,30.10,16,2,18,0.00
2014-9-20,78.1,67.9,60.4,64.0,60.2,57.7,97,78,53,30.27,30.02,9,1,15,0.00
2014-9-21,82.8,68.8,54.7,68.8,61.7,52.6,99,80,55,30.04,29.61,9,0,15,0.00
2014-9-22,68.8,61.3,48.8,52.5,49.1,43.2,81,65,52,30.23,29.75,10,1,18,0.00
2014-9-23,67.1,55.6,42.2,51.4,45.5,39.6,94,71,46,30.39,30.23,4,0,0,0.00
2014-9-24,67.0,57.9,45.9,58.3,52.5,43.7,96,83,72,30.48,30.38,7,1,12,0.06
2014-9-25,67.2,61.3,57.1,62.1,58.7,55.9,97,91,83,30.38,30.23,10,2,14,0.60
2014-9-26,73.7,62.9,52.1,60.3,55.8,51.6,99,80,56,30.27,30.17,8,1,0,0.00
2014-9-27,77.9,64.4,52.7,61.8,56.1,51.6,99,77,47,30.25,30.16,4,0,0,0.00
2014-9-28,77.7,65.0,52.6,63.9,58.0,51.8,99,80,52,30.20,30.03,2,0,0,0.00
2014-9-29,71.8,64.7,58.2,65.0,61.2,57.2,98,89,75,30.03,29.91,0,0,0,0.00
2014-9-30,73.4,65.2,60.0,65.0,62.4,58.9,99,91,73,29.93,29.82,6,0,0,0.27
2014-10-1,68.8,62.5,57.3,62.8,60.3,56.5,98,93,80,30.06,29.93,10,0,12,0.32
2014-10-2,72.0,63.2,56.9,63.4,59.5,56.1,99,88,69,30.14,30.05,6,0,0,0.01
2014-10-3,66.8,63.3,60.4,64.6,61.3,58.4,99,93,89,30.09,29.67,12,2,17,0.05
2014-10-4,65.5,57.5,40.7,65.2,48.7,30.9,99,74,44,29.81,29.59,9,0,13,0.41
2014-10-5,59.5,48.8,37.9,41.7,37.7,33.3,85,67,45,29.96,29.80,6,0,0,0.18
2014-10-6,70.0,55.9,39.7,52.1,46.1,37.3,95,72,51,30.00,29.88,14,2,21,0.13
2014-10-7,65.3,60.7,55.5,58.9,55.4,51.0,95,83,66,30.01,29.83,9,1,18,0.09
2014-10-8,73.0,62.2,52.6,58.8,51.7,44.1,99,72,43,30.01,29.83,7,0,0,0.05
2014-10-9,68.7,59.0,45.5,51.2,45.2,38.6,85,61,40,30.11,29.99,5,0,0,0.00
2014-10-10,58.0,55.6,53.6,53.1,50.2,46.9,92,82,70,30.12,30.05,6,0,0,0.02
2014-10-11,57.0,51.9,49.1,53.7,50.2,47.8,98,94,85,30.17,30.00,4,0,0,0.39
2014-10-12,61.6,53.5,48.1,49.9,47.0,42.0,98,79,59,30.30,30.17,10,1,15,0.00
2014-10-13,62.9,58.1,54.4,62.6,56.5,49.9,100,95,84,30.28,30.17,8,1,0,0.05
2014-10-14,77.6,69.8,62.3,68.6,66.6,62.0,100,90,73,30.17,29.91,13,4,20,0.02
2014-10-15,70.8,65.2,60.3,68.9,64.3,59.7,99,97,91,29.91,29.71,15,2,19,0.94
2014-10-16,65.5,59.1,56.1,59.7,57.5,55.5,100,95,77,29.74,29.69,4,0,0,0.32
2014-10-17,70.5,61.4,52.6,56.7,53.5,50.6,97,77,54,29.80,29.65,8,0,0,0.08
2014-10-18,66.0,56.7,49.5,53.5,48.4,41.7,91,75,57,29.87,29.59,9,0,0,0.00
2014-10-19,56.2,49.9,44.3,43.2,37.0,32.2,76,62,44,30.10,29.85,13,2,21,0.00
2014-10-20,62.8,49.6,35.0,50.6,41.8,32.9,96,76,53,30.12,29.91,13,0,13,0.01
2014-10-21,65.3,54.0,45.6,53.7,49.8,44.8,99,87,61,29.92,29.80,5,0,0,0.08
2014-10-22,55.0,51.7,49.6,50.1,48.4,43.5,98,89,77,29.99,29.88,11,2,18,0.25
2014-10-23,61.4,55.5,48.7,49.3,45.3,42.1,81,69,56,29.96,29.86,15,3,20,0.01
2014-10-24,65.1,55.8,49.8,47.7,42.4,36.2,81,62,39,30.00,29.89,14,1,16,0.00
2014-10-25,70.2,57.9,45.4,51.6,44.8,39.2,83,63,44,29.96,29.67,6,0,0,0.00
2014-10-26,66.6,59.9,52.0,52.1,36.9,30.6,73,43,30,29.91,29.65,11,1,17,0.00
2014-10-27,69.4,57.1,41.8,40.3,35.4,30.2,69,45,30,30.09,29.91,8,0,0,0.00
2014-10-28,81.2,63.6,49.2,58.0,49.9,39.1,80,62,41,30.03,29.88,9,0,0,0.00
2014-10-29,67.6,56.6,44.8,57.6,51.7,43.9,97,84,67,29.98,29.87,8,0,18,0.14
2014-10-30,55.1,47.1,40.5,46.1,40.9,38.1,98,80,58,30.08,29.98,8,0,0,0.01
2014-10-31,47.9,43.1,39.2,39.7,37.9,34.5,94,82,63,30.03,29.84,4,0,0,0.00
2014-11-1,49.4,45.8,41.4,42.0,38.3,32.5,88,75,65,29.95,29.78,19,4,22,0.00
2014-11-2,47.3,42.4,39.0,32.4,27.4,22.4,73,56,39,30.24,29.95,20,6,25,0.00
2014-11-3,56.8,46.9,38.2,29.0,25.0,21.3,60,43,25,30.34,30.20,9,0,13,0.00
2014-11-4,69.3,56.2,42.0,41.9,33.2,25.2,65,43,26,30.22,30.03,6,0,0,0.00
2014-11-5,66.0,57.3,52.4,52.7,46.7,39.2,95,69,51,30.18,30.04,5,0,0,0.03
2014-11-6,56.8,52.4,47.7,54.5,49.3,41.5,98,90,65,30.10,29.65,9,1,14,0.27
2014-11-7,51.9,45.7,37.6,42.2,34.7,26.5,84,66,51,30.05,29.70,20,2,20,0.06
2014-11-8,47.4,41.0,29.9,33.9,29.1,23.9,81,63,49,30.07,29.89,11,1,15,0.12
2014-11-9,55.1,45.8,37.4,38.2,34.2,31.8,81,65,45,30.04,29.90,9,0,12,0.00
2014-11-10,61.1,48.9,35.7,44.6,38.6,31.3,91,69,49,30.16,30.03,13,1,15,0.00
2014-11-11,66.9,53.9,38.2,58.3,48.3,36.6,98,82,62,30.09,29.86,12,1,15,0.00
2014-11-12,57.1,49.7,35.2,54.2,41.7,28.7,100,76,48,30.15,29.84,14,1,20,0.01
2014-11-13,41.0,36.3,32.0,33.9,30.1,27.1,94,79,62,30.17,30.06,8,0,17,0.02
2014-11-14,37.8,32.9,28.1,28.8,21.6,17.5,81,63,46,30.31,30.08,16,2,16,0.00
2014-11-15,41.2,32.1,25.3,24.8,20.1,17.8,75,62,43,30.44,30.31,7,0,0,0.00
2014-11-16,39.8,35.7,28.1,34.3,26.4,20.5,95,70,57,30.36,30.02,7,0,0,0.26
2014-11-17,44.1,39.4,35.4,43.6,36.8,25.4,100,91,66,30.03,29.52,13,1,16,0.26
2014-11-18,35.3,24.6,20.3,24.7,9.1,4.4,65,51,39,30.25,29.79,12,2,22,0.00
2014-11-19,32.5,26.4,17.8,15.9,11.1,7.3,66,52,43,30.35,30.01,13,2,20,0.00
2014-11-20,48.9,35.9,28.7,28.2,18.9,11.6,68,50,39,30.14,29.90,13,1,14,0.00
2014-11-21,33.1,28.3,21.7,14.5,11.8,9.8,65,50,40,30.56,30.14,11,2,15,0.00
2014-11-22,46.4,33.2,17.5,21.6,17.0,11.0,79,53,36,30.55,30.22,8,1,0,0.00
2014-11-23,50.4,42.8,33.7,49.9,28.9,21.0,98,59,43,30.23,29.76,11,1,0,0.14
2014-11-24,68.1,61.9,50.3,58.8,55.9,49.5,99,82,63,29.77,29.55,14,3,21,0.46
2014-11-25,57.9,50.4,39.9,50.5,35.1,29.7,78,56,42,30.15,29.77,13,1,13,0.00
2014-11-26,44.9,36.1,32.6,36.2,33.1,31.4,97,89,62,30.15,29.92,12,2,18,0.58
2014-11-27,40.7,34.9,31.0,36.7,31.6,24.9,98,88,68,30.18,29.98,11,0,13,0.55
2014-11-28,36.0,31.5,27.0,26.8,21.8,17.7,82,67,53,30.32,30.18,14,1,15,0.01
2014-11-29,42.2,35.5,26.4,30.4,25.8,19.3,84,68,55,30.32,30.13,20,1,24,0.02
2014-11-30,62.0,48.1,35.3,46.3,38.0,30.0,83,68,55,30.14,30.02,7,1,0,0.00
2014-12-1,70.4,52.1,40.2,55.6,44.3,31.9,90,75,58,30.47,30.10,15,2,22,0.02
2014-12-2,40.2,33.6,31.7,32.3,30.9,29.0,97,90,71,30.58,30.30,4,0,0,0.28
2014-12-3,46.1,39.2,33.0,45.1,36.4,27.0,99,91,64,30.32,30.04,6,1,14,0.18
2014-12-4,41.6,37.7,32.1,30.7,28.1,26.2,80,68,60,30.49,30.31,8,0,13,0.00
2014-12-5,39.5,37.4,36.5,37.0,32.6,28.6,96,83,68,30.53,30.31,7,1,14,0.10
2014-12-6,44.9,41.5,38.1,44.1,40.5,36.8,98,96,88,30.31,30.04,9,1,13,0.20
2014-12-7,43.4,37.3,31.3,37.1,24.8,16.3,88,62,39,30.59,30.30,11,3,15,0.40
2014-12-8,33.2,30.0,28.6,25.0,20.0,14.9,85,67,49,30.60,30.37,12,2,14,0.00
2014-12-9,40.0,39.1,37.8,36.7,35.9,34.9,91,88,83,29.92,29.91,7,2,13,0.02
2014-12-10,43.0,39.3,34.8,35.6,32.0,26.4,83,75,69,29.91,29.82,14,4,24,0.00
2014-12-11,37.1,36.6,36.2,19.1,13.8,11.4,49,39,35,30.00,29.93,7,1,12,0.00
2014-12-12,39.9,35.7,32.4,27.6,24.4,14.4,73,64,40,30.13,29.99,12,2,17,0.00
2014-12-13,42.0,36.6,31.5,31.8,28.6,25.3,80,73,64,30.14,30.00,11,2,15,0.00
2014-12-14,47.5,46.4,42.7,39.9,39.4,37.9,83,76,73,30.02,29.99,6,1,0,0.00
2014-12-15,49.2,43.5,40.1,41.6,38.9,36.3,89,84,75,30.07,30.02,6,1,0,0.00
2014-12-16,41.8,38.9,36.6,41.3,37.4,35.0,98,95,89,30.04,29.89,6,1,0,0.25
2014-12-17,51.3,42.1,35.5,41.5,34.4,24.8,99,75,57,30.08,29.90,13,1,18,0.01
2014-12-18,35.6,33.4,31.4,25.7,24.0,20.6,74,68,62,30.18,30.07,10,1,20,0.00
2014-12-19,38.8,33.1,28.8,26.9,24.9,21.8,76,71,61,30.26,30.10,15,2,15,0.00
2014-12-20,34.2,30.0,25.1,24.7,22.5,19.8,82,73,63,30.34,30.24,8,0,0,0.00
2014-12-21,37.5,32.3,28.5,27.0,24.4,22.8,80,72,63,30.37,30.28,7,1,14,0.00
2014-12-22,33.2,29.1,24.6,32.4,26.3,21.3,97,90,80,30.34,30.11,5,0,0,0.15
2014-12-23,42.8,36.7,32.9,42.5,36.2,32.1,99,98,97,30.12,30.01,6,0,0,0.13
2014-12-24,53.5,45.8,40.2,53.5,45.7,39.9,100,100,99,30.03,29.51,7,1,14,0.77
2014-12-25,52.3,45.7,36.9,52.3,36.5,30.7,100,71,55,30.23,29.58,10,1,17,0.21
2014-12-26,50.5,40.3,32.9,35.3,32.0,28.7,86,73,52,30.34,30.21,8,0,12,0.01
2014-12-27,56.6,44.9,32.3,38.5,32.5,29.4,92,64,39,30.31,30.04,5,0,0,0.00
2014-12-28,56.0,48.0,40.7,45.3,39.5,31.8,89,73,63,30.12,29.93,10,1,13,0.01
2014-12-29,41.5,38.1,34.8,32.5,28.8,24.5,76,69,63,30.25,30.11,8,0,0,0.00
2014-12-30,36.4,31.7,24.7,21.3,16.9,12.9,68,55,42,30.45,30.36,10,2,13,0.00
2014-12-31,33.5,27.7,22.9,17.0,12.9,8.7,71,54,37,30.45,30.24,6,1,12,0.00
2015-1-1,42.8,34.0,26.9,20.2,14.5,7.1,56,44,37,30.24,30.05,9,1,12,0.00
2015-1-2,43.4,38.1,31.3,25.6,23.9,22.2,70,57,46,30.44,30.24,6,0,13,0.00